• In Belarus
  • List of Countries
  • For 7 days
  • Water Temperature
  • Satellite Maps
  • Weather Map
  • Weather Widgets
  • user-avatar
    Login

    Hourly Weather La-Plata

    Today, 24 November, Friday

    Time Temperature Precipitation Wind Pressure Humidity
    00:00 +9°C° 0 mm 6 mps 759 mmHg 55%
    01:00 +8°C° 0 mm 6 mps 759 mmHg 57%
    02:00 +7°C° 0 mm 6 mps 760 mmHg 58%
    03:00 +7°C° 0 mm 5 mps 760 mmHg 60%
    04:00 +6°C° 0 mm 5 mps 760 mmHg 62%
    05:00 +6°C° 0 mm 5 mps 760 mmHg 63%
    06:00 +8°C° 0 mm 5 mps 761 mmHg 58%
    07:00 +10°C° 0 mm 5 mps 761 mmHg 53%
    08:00 +14°C° 0 mm 5 mps 762 mmHg 48%
    09:00 +15°C° 0 mm 5 mps 762 mmHg 43%
    10:00 +18°C° 0 mm 4 mps 762 mmHg 38%
    11:00 +20°C° 0 mm 3 mps 762 mmHg 33%
    12:00 +21°C° 0 mm 3 mps 762 mmHg 31%
    13:00 +22°C° 0 mm 3 mps 762 mmHg 30%
    14:00 +24°C° 0 mm 2 mps 761 mmHg 28%
    15:00 +22°C° 0 mm 3 mps 761 mmHg 31%
    16:00 +22°C° 0 mm 3 mps 761 mmHg 33%
    17:00 +21°C° 0 mm 3 mps 761 mmHg 35%
    18:00 +19°C° 0 mm 3 mps 761 mmHg 42%
    19:00 +17°C° 0 mm 4 mps 761 mmHg 50%
    20:00 +14°C° 0 mm 4 mps 762 mmHg 57%
    21:00 +14°C° 0 mm 4 mps 762 mmHg 61%
    22:00 +13°C° 0 mm 4 mps 763 mmHg 65%
    23:00 +13°C° 0 mm 4 mps 763 mmHg 70%

    Tomorrow, 25 November, Saturday

    Time Temperature Precipitation Wind Pressure Humidity
    00:00 +12°C° 0 mm 4 mps 763 mmHg 72%
    01:00 +12°C° 0 mm 4 mps 763 mmHg 74%
    02:00 +12°C° 0 mm 3 mps 763 mmHg 75%
    03:00 +12°C° 0 mm 3 mps 763 mmHg 75%
    04:00 +12°C° 0 mm 3 mps 763 mmHg 75%
    05:00 +12°C° 0 mm 3 mps 763 mmHg 75%
    06:00 +14°C° 0 mm 3 mps 763 mmHg 67%
    07:00 +17°C° 0 mm 3 mps 763 mmHg 59%
    08:00 +19°C° 0 mm 4 mps 763 mmHg 51%
    09:00 +20°C° 0 mm 3 mps 763 mmHg 45%
    10:00 +22°C° 0 mm 3 mps 763 mmHg 40%
    11:00 +24°C° 0 mm 2 mps 762 mmHg 35%
    12:00 +25°C° 0 mm 2 mps 762 mmHg 32%
    13:00 +26°C° 0 mm 2 mps 761 mmHg 30%
    14:00 +27°C° 0 mm 2 mps 761 mmHg 28%
    15:00 +26°C° 0 mm 2 mps 760 mmHg 30%
    16:00 +26°C° 0 mm 3 mps 760 mmHg 32%
    17:00 +26°C° 0 mm 3 mps 760 mmHg 34%
    18:00 +22°C° 0 mm 3 mps 760 mmHg 39%
    19:00 +20°C° 0 mm 4 mps 760 mmHg 44%
    20:00 +18°C° 0 mm 4 mps 760 mmHg 48%
    21:00 +17°C° 0 mm 4 mps 760 mmHg 55%
    22:00 +17°C° 0 mm 4 mps 761 mmHg 61%
    23:00 +16°C° 0 mm 5 mps 761 mmHg 68%

    Day after tomorrow, 26 November, Sunday

    Time Temperature Precipitation Wind Pressure Humidity
    00:00 +15°C° 0 mm 5 mps 760 mmHg 71%
    01:00 +15°C° 0 mm 5 mps 760 mmHg 75%
    02:00 +15°C° 0 mm 5 mps 759 mmHg 79%
    03:00 +15°C° 0 mm 4 mps 759 mmHg 79%
    04:00 +15°C° 0 mm 4 mps 759 mmHg 78%
    05:00 +15°C° 0 mm 4 mps 759 mmHg 78%
    06:00 +18°C° 0 mm 4 mps 759 mmHg 71%
    07:00 +20°C° 0 mm 4 mps 759 mmHg 63%
    08:00 +23°C° 0 mm 4 mps 759 mmHg 56%
    09:00 +25°C° 0 mm 4 mps 758 mmHg 49%
    10:00 +27°C° 0 mm 4 mps 758 mmHg 43%
    11:00 +29°C° 0 mm 4 mps 757 mmHg 36%
    12:00 +29°C° 0 mm 3 mps 757 mmHg 33%
    13:00 +30°C° 0 mm 3 mps 756 mmHg 30%
    14:00 +31°C° 0 mm 3 mps 755 mmHg 27%
    15:00 +30°C° 0 mm 3 mps 755 mmHg 30%
    16:00 +30°C° 0 mm 3 mps 755 mmHg 32%
    17:00 +29°C° 0 mm 4 mps 754 mmHg 34%
    18:00 +27°C° 0 mm 4 mps 754 mmHg 42%
    19:00 +25°C° 0 mm 5 mps 755 mmHg 50%
    20:00 +22°C° 0 mm 5 mps 755 mmHg 57%
    21:00 +22°C° 0 mm 5 mps 755 mmHg 59%
    22:00 +22°C° 0 mm 5 mps 755 mmHg 61%
    23:00 +22°C° 0 mm 6 mps 754 mmHg 63%

    27 November, Monday

    Time Temperature Precipitation Wind Pressure Humidity
    00:00 +21°C° 0 mm 5 mps 754 mmHg 65%
    01:00 +21°C° 0 mm 5 mps 754 mmHg 67%
    02:00 +20°C° 0 mm 5 mps 754 mmHg 68%
    03:00 +20°C° 0 mm 5 mps 754 mmHg 69%
    04:00 +20°C° 0 mm 5 mps 755 mmHg 69%
    05:00 +20°C° 0 mm 5 mps 756 mmHg 70%
    06:00 +20°C° 0.1 mm 5 mps 757 mmHg 68%
    07:00 +21°C° 0.1 mm 6 mps 758 mmHg 67%
    08:00 +21°C° 0.1 mm 7 mps 759 mmHg 65%
    09:00 +22°C° 0 mm 8 mps 759 mmHg 57%
    10:00 +23°C° 0 mm 8 mps 760 mmHg 48%
    11:00 +24°C° 0 mm 9 mps 761 mmHg 39%
    12:00 +24°C° 0 mm 9 mps 761 mmHg 38%
    13:00 +26°C° 0 mm 9 mps 761 mmHg 36%
    14:00 +26°C° 0 mm 8 mps 762 mmHg 34%
    15:00 +24°C° 0 mm 8 mps 762 mmHg 36%
    16:00 +22°C° 0 mm 8 mps 763 mmHg 38%
    17:00 +21°C° 0 mm 8 mps 763 mmHg 40%
    18:00 +18°C° 0 mm 8 mps 764 mmHg 45%
    19:00 +16°C° 0 mm 8 mps 765 mmHg 50%
    20:00 +12°C° 0 mm 8 mps 765 mmHg 55%
    21:00 +11°C° 0 mm 7 mps 766 mmHg 58%
    22:00 +10°C° 0 mm 6 mps 766 mmHg 61%
    23:00 +8°C° 0 mm 6 mps 766 mmHg 63%

    28 November, Tuesday

    Time Temperature Precipitation Wind Pressure Humidity
    00:00 +8°C° 0 mm 6 mps 766 mmHg 66%
    01:00 +7°C° 0 mm 5 mps 766 mmHg 68%
    02:00 +6°C° 0 mm 5 mps 766 mmHg 71%
    03:00 +6°C° 0 mm 4 mps 766 mmHg 72%
    04:00 +6°C° 0 mm 4 mps 766 mmHg 74%
    05:00 +7°C° 0 mm 3 mps 766 mmHg 76%
    06:00 +9°C° 0 mm 3 mps 767 mmHg 68%
    07:00 +12°C° 0 mm 3 mps 767 mmHg 60%
    08:00 +16°C° 0 mm 3 mps 767 mmHg 52%
    09:00 +17°C° 0 mm 3 mps 767 mmHg 46%
    10:00 +19°C° 0 mm 3 mps 766 mmHg 40%
    11:00 +21°C° 0 mm 3 mps 766 mmHg 35%
    12:00 +22°C° 0 mm 3 mps 765 mmHg 34%
    13:00 +22°C° 0 mm 4 mps 764 mmHg 34%
    14:00 +23°C° 0 mm 4 mps 764 mmHg 34%
    15:00 +22°C° 0 mm 4 mps 763 mmHg 36%
    16:00 +22°C° 0 mm 5 mps 763 mmHg 39%
    17:00 +21°C° 0 mm 5 mps 762 mmHg 41%
    18:00 +19°C° 0 mm 5 mps 762 mmHg 49%
    19:00 +16°C° 0 mm 5 mps 763 mmHg 57%
    20:00 +14°C° 0 mm 5 mps 763 mmHg 65%
    21:00 +13°C° 0 mm 5 mps 763 mmHg 70%
    22:00 +13°C° 0 mm 5 mps 763 mmHg 74%
    23:00 +13°C° 0 mm 5 mps 763 mmHg 78%

    29 November, Wednesday

    Time Temperature Precipitation Wind Pressure Humidity
    00:00 +13°C° 0 mm 5 mps 762 mmHg 80%
    01:00 +13°C° 0 mm 4 mps 762 mmHg 82%
    02:00 +12°C° 0 mm 4 mps 762 mmHg 84%
    03:00 +12°C° 0 mm 4 mps 762 mmHg 85%
    04:00 +13°C° 0 mm 4 mps 762 mmHg 87%
    05:00 +13°C° 0 mm 4 mps 762 mmHg 88%
    06:00 +15°C° 0 mm 4 mps 762 mmHg 77%
    07:00 +18°C° 0 mm 4 mps 762 mmHg 67%
    08:00 +20°C° 0 mm 4 mps 761 mmHg 57%
    09:00 +22°C° 0 mm 4 mps 761 mmHg 50%
    10:00 +25°C° 0 mm 4 mps 760 mmHg 44%
    11:00 +26°C° 0 mm 3 mps 760 mmHg 37%
    12:00 +27°C° 0 mm 3 mps 759 mmHg 34%
    13:00 +28°C° 0 mm 3 mps 759 mmHg 31%
    14:00 +29°C° 0 mm 3 mps 758 mmHg 28%
    15:00 +28°C° 0 mm 3 mps 757 mmHg 30%
    16:00 +28°C° 0 mm 4 mps 757 mmHg 31%
    17:00 +27°C° 0 mm 4 mps 757 mmHg 33%
    18:00 +25°C° 0 mm 4 mps 757 mmHg 44%
    19:00 +22°C° 0 mm 5 mps 757 mmHg 55%
    20:00 +19°C° 0 mm 5 mps 757 mmHg 66%
    21:00 +19°C° 0 mm 5 mps 757 mmHg 69%
    22:00 +19°C° 0 mm 4 mps 757 mmHg 72%
    23:00 +18°C° 0 mm 4 mps 757 mmHg 76%
    Show more